Weather in Launceston

Australia     41°26′48″S   147°08′21″E
temp.,
°C
wind,
m/s
gust,
m/s
humid.,
%
clouds,
%
prec.,
mm/h
press.,
hPa
HPBL,
m
23 april, fri
fri2301:00+9nw496765 0.0 1007825
04:00+8nw4106756 0.0 1007527
07:00+9nw3866100 0.0 1009539
10:00+12w484668 0.0 10111836
13:00+14w584599 0.0 10101999
16:00+12w5857100 0.0 10121234
19:00+10wnw27688 0.0 1014463
22:00+8n3876100 0.0 1016308
24 april, sat
sat2401:00+10nnw3970100 0.0 1016506
04:00+7nnw378899 0.0 1016215
07:00+8nnw3984100 0.0 1016352
10:00+12nw4768100 0.0 1017800
13:00+14w3751100 0.1 10161754
16:00+14sw345227 0.1 1016929
19:00+8ese1185100 0.0 102012
22:00+7e1180100 0.0 102121
25 april, sun
sun2501:00+6e1182100 0.0 102214
04:00+4ne11895 0.0 102210
07:00+4nne11895 0.0 102311
10:00+11nw24565 0.0 1022576
13:00+14w484964 0.0 10201626
16:00+14w4754100 0.0 10201277
19:00+8nnw2479100 0.0 102275
22:00+8n2487100 0.0 102392
26 april, mon
mon2601:00+8nne23895 0.0 102265
04:00+7nne21945 0.0 102224
07:00+7nne119489 0.0 102318
10:00+14wnw12645 0.0 1024510
13:00+18wnw135045 0.0 10221407
16:00+18ssw114862 0.0 10211353
19:00+13se126625 0.0 102488
22:00+9se22815 0.0 102521
27 april, tue
tue2701:00+8se22845 0.0 102542
04:00+6se22875 0.0 102628
07:00+6se118615 0.0 102815
10:00+13s235541 0.0 1028515
13:00+17ssw12406 0.0 1027964
16:00+16wsw01445 0.0 1026627
19:00+9n24894 0.0 102877
22:00+8nne119599 0.0 102916